GSAT0213 (GALILEO 17)

Last updated on Feb. 23, 2020, 4:52 a.m. UTC

1 41861U 16069C   20053.51769721 -.00000026  00000-0  00000-0 0  9999
2 41861  54.6342 165.0642 0002784 266.4334  93.5034  1.70473884 20333
UTC
Height (km)
Latitude
Longitude
Inclination
Orbital Period
UTC large
Height (km)
Speed (km/s)
/
Latitude / Longitude
Inclination (degrees)
Orbital Period (minutes)
Azimuth
Elevation
Range (km)
Doppler Factor
iOS Compass Heading
iOS Angle

Next 30 passes for location: Hong Kong

Rise time Rise Azimuth (degrees) Set time Set Azimuth (degrees) Duration Max altitude (degrees)

No matching passes for this satellites